Location: Bats
(43.6587°N, 0.4584°W)
Time: 06:29:25
(UTC+00:00)

Cosmos 1500 Rocket - Pass Details

Date: 12 January 2026
Orbit: 597 x 623 km, 82.5° (Epoch: 10 February)

Event Time Altitude Azimuth Distance (km) Brightness Sun altitude
Rises 17:10:38 0° 348° (NNW) 2,911 6.9 -4.6°
Reaches altitude 10° 17:12:53 10° 346° (NNW) 2,001 6.1 -5.0°
Maximum altitude 17:17:17 66° 265° (W) 682 4.1 -5.7°
Drops below altitude 10° 17:21:39 10° 183° (S) 1,986 6.5 -6.4°
Sets 17:23:52 0° 181° (S) 2,886 7.3 -6.8°
